カタログに戻る

AEROCUBE 2

運用中科学SSO
NORAD 31133·PAYLOAD·🇺🇸 United States

打ち上げ Apr 17, 2007 から Baikonur Cosmodrome

Loading…

次のパス (今後24時間)

TLE

最新Source: Space-Track

元期: Sep 14, 2026, 05:17 UTC

1 31133U 07012R   26257.22015180  .00000936  00000-0  17091-3 0  9991
2 31133  98.4462 244.8305 0072013  45.2533 315.4501 14.66843589 33400

AllMySatでAEROCUBE 2をリアルタイム追跡

Download on the App Store